This is the latest recevied weather packets stored in our database for station/object IW8PDD-3. If no packets are shown the sender has not sent any weather packets the latest 10 day(s).
| Time | Temp. | Humidity | Pressure | Rain* | Wind** | Luminosity | Snow |
|---|---|---|---|---|---|---|---|
| 1777533681 | 20° C | 60% | 1016 hPa | - | - | - | - |
| 1777532478 | 20° C | 59% | 1016.1 hPa | - | - | - | - |
| 1777531274 | 20° C | 57% | 1015.8 hPa | - | - | - | - |
| 1777530071 | 19.44° C | 55% | 1015.6 hPa | - | - | - | - |
| 1777528867 | 18.89° C | 55% | 1015.4 hPa | - | - | - | - |
| 1777527664 | 18.89° C | 55% | 1015.3 hPa | - | - | - | - |
| 1777526460 | 18.33° C | 56% | 1015.2 hPa | - | - | - | - |
| 1777525257 | 18.33° C | 58% | 1015.2 hPa | - | - | - | - |
| 1777524053 | 18.33° C | 59% | 1015.5 hPa | - | - | - | - |
| 1777522850 | 18.33° C | 59% | 1015.6 hPa | - | - | - | - |
| 1777521646 | 18.33° C | 58% | 1015.6 hPa | - | - | - | - |
| 1777520442 | 18.33° C | 56% | 1015.2 hPa | - | - | - | - |
| 1777519238 | 18.89° C | 53% | 1015.2 hPa | - | - | - | - |
| 1777516830 | 18.89° C | 53% | 1015.3 hPa | - | - | - | - |
| 1777515626 | 18.89° C | 57% | 1015.3 hPa | - | - | - | - |
| 1777514422 | 18.33° C | 57% | 1015.4 hPa | - | - | - | - |
| 1777513218 | 18.33° C | 54% | 1015.2 hPa | - | - | - | - |
| 1777512014 | 18.89° C | 51% | 1015.3 hPa | - | - | - | - |
| 1777510811 | 19.44° C | 46% | 1015.5 hPa | - | - | - | - |
| 1777508404 | 19.44° C | 45% | 1015.6 hPa | - | - | - | - |
| 1777507200 | 20° C | 45% | 1015.6 hPa | - | - | - | - |
| 1777505997 | 20° C | 45% | 1015.9 hPa | - | - | - | - |
| 1777504794 | 20° C | 45% | 1016 hPa | - | - | - | - |
| 1777503590 | 19.44° C | 46% | 1016.1 hPa | - | - | - | - |
| 1777502387 | 19.44° C | 46% | 1016.2 hPa | - | - | - | - |
* Rain since midnight (hover to see other rain measurements)
** Current wind speed in m/s (hover to see current wind gust speed)